GFSMW_prec_precacc24_057.txt.gz
Total_Precipitation_Accumulation
0.00 0.00 0.00 0.00 0.00 0.00 0.00 0.00 0.04 0.06 0.14 0.10 0.03 0.01 0.02 0.05 0.08 0.11 0.08 0.06 0.05 0.03 0.02 0.06 0.07 0.17 0.08 0.02 0.00 0.00 0.00 0.00 0.00 0.00 0.00 0.00 0.00 0.00 0.00 0.00 0.00 0.00 0.00
0.00 0.00 0.00 0.00 0.00 0.00 0.00 0.00 0.00 0.02 0.06 0.09 0.02 0.00 0.00 0.02 0.04 0.07 0.03 0.03 0.08 0.05 0.03 0.04 0.04 0.08 0.07 0.01 0.00 0.00 0.00 0.00 0.00 0.00 0.00 0.00 0.00 0.00 0.00 0.00 0.00 0.00 0.00
0.00 0.00 0.00 0.00 0.00 0.00 0.00 0.00 0.00 0.00 0.00 0.02 0.01 0.02 0.00 0.00 0.06 0.07 0.08 0.05 0.05 0.06 0.07 0.04 0.04 0.06 0.12 0.01 0.01 0.01 0.02 0.02 0.00 0.00 0.00 0.00 0.00 0.00 0.00 0.00 0.00 0.00 0.00
0.00 0.00 0.00 0.00 0.00 0.00 0.00 0.00 0.00 0.00 0.00 0.01 0.01 0.01 0.02 0.02 0.04 0.04 0.04 0.02 0.04 0.07 0.14 0.18 0.17 0.12 0.18 0.10 0.05 0.04 0.04 0.05 0.03 0.02 0.01 0.00 0.01 0.00 0.01 0.00 0.00 0.00 0.00
0.00 0.00 0.00 0.00 0.00 0.00 0.00 0.00 0.00 0.01 0.01 0.03 0.07 0.13 0.14 0.12 0.11 0.04 0.06 0.04 0.11 0.15 0.19 0.23 0.28 0.25 0.19 0.22 0.18 0.11 0.08 0.06 0.06 0.05 0.03 0.02 0.03 0.05 0.04 0.01 0.00 0.00 0.00
0.00 0.00 0.00 0.00 0.00 0.00 0.01 0.02 0.02 0.06 0.14 0.20 0.12 0.15 0.26 0.16 0.15 0.14 0.23 0.24 0.30 0.29 0.34 0.31 0.26 0.27 0.25 0.24 0.22 0.20 0.21 0.19 0.15 0.07 0.07 0.07 0.08 0.07 0.03 0.01 0.00 0.00 0.00
0.00 0.00 0.00 0.00 0.00 0.00 0.00 0.05 0.11 0.13 0.18 0.27 0.14 0.17 0.29 0.35 0.38 0.36 0.43 0.55 0.74 0.72 0.31 0.21 0.18 0.18 0.22 0.21 0.13 0.09 0.08 0.09 0.09 0.10 0.11 0.10 0.08 0.04 0.02 0.01 0.00 0.00 0.00
0.00 0.00 0.00 0.01 0.02 0.01 0.00 0.06 0.18 0.26 0.22 0.14 0.18 0.22 0.26 0.32 0.43 0.38 0.45 0.61 0.41 0.29 0.18 0.12 0.11 0.11 0.13 0.11 0.05 0.03 0.03 0.03 0.05 0.06 0.06 0.06 0.03 0.02 0.01 0.00 0.00 0.00 0.00
0.00 0.01 0.00 0.01 0.01 0.02 0.02 0.10 0.10 0.23 0.22 0.24 0.32 0.23 0.16 0.16 0.23 0.29 0.25 0.22 0.20 0.20 0.18 0.16 0.11 0.07 0.09 0.08 0.04 0.03 0.04 0.04 0.05 0.06 0.03 0.01 0.01 0.01 0.00 0.00 0.00 0.01 0.01
0.00 0.00 0.00 0.01 0.01 0.01 0.05 0.15 0.08 0.04 0.12 0.20 0.21 0.13 0.17 0.22 0.13 0.15 0.18 0.26 0.33 0.27 0.35 0.21 0.13 0.09 0.06 0.06 0.05 0.04 0.02 0.02 0.02 0.03 0.05 0.05 0.03 0.03 0.02 0.02 0.01 0.01 0.01
0.00 0.00 0.00 0.01 0.01 0.01 0.05 0.10 0.20 0.30 0.26 0.18 0.08 0.10 0.25 0.51 0.42 0.32 0.28 0.31 0.42 0.45 0.53 0.25 0.10 0.11 0.13 0.07 0.02 0.01 0.01 0.02 0.03 0.05 0.09 0.11 0.08 0.05 0.03 0.02 0.01 0.01 0.01
0.00 0.00 0.00 0.00 0.00 0.02 0.08 0.16 0.26 0.37 0.46 0.28 0.27 0.48 0.69 0.89 0.80 0.63 0.75 0.52 0.29 0.16 0.17 0.16 0.11 0.08 0.09 0.09 0.06 0.02 0.02 0.05 0.14 0.25 0.19 0.11 0.04 0.02 0.01 0.00 0.00 0.00 0.00
0.00 0.00 0.00 0.00 0.00 0.01 0.07 0.15 0.15 0.22 0.43 0.49 0.57 0.54 0.46 0.67 0.81 0.66 0.48 0.32 0.19 0.17 0.11 0.09 0.09 0.07 0.07 0.05 0.06 0.07 0.13 0.23 0.20 0.09 0.03 0.01 0.00 0.00 0.00 0.00 0.00 0.00 0.00
0.00 0.00 0.00 0.00 0.00 0.07 0.08 0.11 0.19 0.23 0.29 0.30 0.22 0.18 0.31 0.26 0.31 0.31 0.28 0.14 0.09 0.08 0.10 0.09 0.07 0.07 0.07 0.10 0.13 0.17 0.15 0.06 0.02 0.01 0.01 0.01 0.00 0.00 0.00 0.00 0.00 0.00 0.00
0.00 0.00 0.00 0.00 0.02 0.04 0.04 0.05 0.06 0.13 0.20 0.18 0.11 0.16 0.16 0.16 0.18 0.18 0.15 0.13 0.10 0.07 0.05 0.06 0.07 0.09 0.11 0.16 0.15 0.06 0.02 0.00 0.00 0.00 0.00 0.00 0.00 0.00 0.00 0.00 0.00 0.00 0.00
0.00 0.00 0.00 0.00 0.01 0.01 0.01 0.04 0.07 0.13 0.12 0.10 0.08 0.12 0.11 0.14 0.18 0.13 0.08 0.06 0.09 0.09 0.06 0.08 0.11 0.17 0.18 0.10 0.04 0.02 0.00 0.00 0.00 0.00 0.00 0.00 0.00 0.00 0.00 0.00 0.00 0.00 0.00
0.00 0.00 0.00 0.00 0.02 0.02 0.02 0.03 0.06 0.05 0.05 0.04 0.05 0.07 0.08 0.12 0.12 0.11 0.07 0.07 0.12 0.13 0.15 0.24 0.25 0.13 0.03 0.06 0.03 0.01 0.00 0.00 0.00 0.00 0.00 0.00 0.00 0.00 0.00 0.00 0.00 0.00 0.00
0.00 0.00 0.00 0.01 0.02 0.02 0.00 0.01 0.02 0.02 0.02 0.02 0.04 0.05 0.06 0.08 0.08 0.09 0.07 0.11 0.16 0.24 0.25 0.15 0.05 0.02 0.02 0.04 0.01 0.00 0.00 0.00 0.00 0.00 0.00 0.00 0.00 0.00 0.00 0.00 0.00 0.00 0.00
0.00 0.00 0.00 0.00 0.00 0.00 0.00 0.00 0.01 0.01 0.02 0.03 0.06 0.05 0.04 0.06 0.08 0.16 0.21 0.23 0.17 0.09 0.04 0.03 0.02 0.01 0.01 0.01 0.00 0.00 0.00 0.00 0.00 0.00 0.00 0.00 0.00 0.00 0.00 0.00 0.00 0.00 0.01
0.00 0.00 0.00 0.00 0.00 0.00 0.00 0.00 0.00 0.00 0.01 0.01 0.03 0.03 0.04 0.06 0.10 0.11 0.10 0.06 0.03 0.02 0.01 0.00 0.00 0.00 0.00 0.00 0.00 0.00 0.00 0.00 0.00 0.00 0.00 0.00 0.00 0.00 0.00 0.00 0.00 0.02 0.01
0.00 0.00 0.00 0.00 0.00 0.00 0.00 0.00 0.00 0.00 0.00 0.00 0.00 0.01 0.03 0.06 0.05 0.03 0.02 0.01 0.01 0.00 0.00 0.00 0.00 0.00 0.00 0.00 0.00 0.00 0.00 0.00 0.00 0.00 0.00 0.00 0.00 0.00 0.00 0.00 0.01 0.02 0.02
0.00 0.00 0.00 0.00 0.00 0.00 0.00 0.00 0.00 0.00 0.00 0.00 0.01 0.02 0.01 0.00 0.00 0.00 0.00 0.00 0.00 0.00 0.00 0.00 0.00 0.00 0.00 0.00 0.00 0.00 0.00 0.00 0.00 0.01 0.01 0.01 0.01 0.01 0.01 0.02 0.03 0.02 0.04
0.00 0.00 0.00 0.00 0.00 0.00 0.00 0.00 0.00 0.00 0.00 0.00 0.00 0.00 0.00 0.00 0.00 0.00 0.00 0.00 0.00 0.00 0.00 0.00 0.00 0.00 0.00 0.00 0.00 0.00 0.00 0.00 0.00 0.01 0.01 0.01 0.02 0.03 0.04 0.03 0.02 0.03 0.11
0.00 0.00 0.00 0.00 0.00 0.00 0.00 0.00 0.00 0.00 0.00 0.00 0.00 0.00 0.00 0.00 0.00 0.00 0.00 0.00 0.00 0.00 0.00 0.00 0.00 0.00 0.00 0.00 0.00 0.01 0.01 0.01 0.01 0.01 0.02 0.02 0.04 0.06 0.07 0.06 0.08 0.11 0.11
0.00 0.00 0.00 0.00 0.00 0.00 0.00 0.00 0.00 0.00 0.00 0.00 0.00 0.00 0.00 0.00 0.00 0.00 0.00 0.00 0.00 0.00 0.00 0.00 0.00 0.00 0.01 0.00 0.01 0.01 0.02 0.02 0.03 0.05 0.08 0.07 0.09 0.10 0.09 0.09 0.09 0.11 0.12
0.00 0.00 0.00 0.00 0.00 0.00 0.00 0.00 0.00 0.00 0.00 0.00 0.00 0.00 0.00 0.00 0.00 0.00 0.00 0.00 0.00 0.00 0.00 0.00 0.00 0.01 0.01 0.00 0.01 0.01 0.03 0.05 0.08 0.16 0.11 0.06 0.06 0.07 0.08 0.12 0.12 0.12 0.13

GFSMW_prec_precacc24_060.txt.gz
Total_Precipitation_Accumulation
0.00 0.00 0.00 0.00 0.01 0.01 0.01 0.02 0.07 0.16 0.23 0.12 0.04 0.03 0.02 0.01 0.06 0.10 0.08 0.07 0.07 0.07 0.05 0.10 0.10 0.20 0.11 0.04 0.01 0.00 0.00 0.00 0.00 0.00 0.00 0.00 0.00 0.00 0.00 0.00 0.00 0.00 0.00
0.00 0.00 0.00 0.00 0.00 0.00 0.00 0.00 0.00 0.08 0.18 0.14 0.03 0.01 0.01 0.02 0.04 0.07 0.03 0.04 0.10 0.08 0.06 0.07 0.06 0.08 0.10 0.02 0.00 0.00 0.01 0.00 0.00 0.00 0.00 0.00 0.00 0.00 0.00 0.00 0.00 0.00 0.00
0.00 0.00 0.00 0.00 0.00 0.00 0.00 0.00 0.00 0.00 0.02 0.04 0.03 0.02 0.00 0.02 0.06 0.07 0.08 0.05 0.05 0.07 0.09 0.06 0.05 0.06 0.12 0.01 0.01 0.01 0.02 0.02 0.01 0.01 0.01 0.01 0.00 0.00 0.00 0.00 0.00 0.00 0.00
0.00 0.00 0.00 0.00 0.00 0.00 0.00 0.00 0.00 0.00 0.00 0.00 0.02 0.01 0.01 0.03 0.04 0.04 0.04 0.02 0.04 0.07 0.14 0.18 0.17 0.12 0.18 0.10 0.05 0.04 0.04 0.05 0.03 0.03 0.01 0.01 0.01 0.01 0.01 0.00 0.00 0.00 0.00
0.00 0.00 0.00 0.00 0.00 0.00 0.00 0.00 0.00 0.00 0.01 0.03 0.05 0.09 0.06 0.04 0.07 0.04 0.06 0.04 0.11 0.15 0.19 0.23 0.28 0.25 0.19 0.22 0.18 0.13 0.10 0.08 0.08 0.07 0.04 0.03 0.04 0.06 0.06 0.03 0.01 0.00 0.00
0.00 0.00 0.00 0.00 0.00 0.00 0.00 0.00 0.00 0.02 0.13 0.18 0.07 0.09 0.20 0.11 0.11 0.13 0.22 0.24 0.30 0.29 0.34 0.31 0.26 0.27 0.25 0.24 0.26 0.29 0.31 0.26 0.24 0.23 0.22 0.18 0.13 0.08 0.05 0.03 0.01 0.00 0.00
0.00 0.00 0.00 0.00 0.00 0.00 0.00 0.00 0.00 0.03 0.12 0.18 0.11 0.12 0.21 0.31 0.36 0.35 0.42 0.55 0.73 0.72 0.31 0.21 0.18 0.18 0.22 0.23 0.18 0.16 0.15 0.16 0.16 0.16 0.16 0.13 0.10 0.06 0.05 0.04 0.02 0.00 0.00
0.00 0.00 0.00 0.00 0.00 0.00 0.00 0.00 0.00 0.06 0.07 0.05 0.11 0.17 0.19 0.27 0.37 0.34 0.43 0.59 0.40 0.29 0.18 0.12 0.09 0.10 0.14 0.15 0.12 0.08 0.07 0.05 0.06 0.09 0.10 0.09 0.05 0.04 0.03 0.02 0.00 0.00 0.00
0.00 0.01 0.00 0.00 0.01 0.01 0.01 0.00 0.00 0.10 0.14 0.18 0.29 0.20 0.13 0.08 0.15 0.21 0.21 0.21 0.19 0.20 0.18 0.15 0.10 0.08 0.09 0.10 0.10 0.07 0.08 0.06 0.06 0.07 0.06 0.04 0.02 0.01 0.01 0.01 0.01 0.01 0.01
0.00 0.00 0.00 0.01 0.01 0.01 0.04 0.07 0.04 0.03 0.09 0.17 0.19 0.12 0.13 0.15 0.08 0.12 0.16 0.26 0.33 0.28 0.36 0.25 0.17 0.13 0.10 0.11 0.09 0.06 0.05 0.04 0.04 0.05 0.06 0.06 0.04 0.03 0.02 0.02 0.01 0.01 0.02
0.00 0.00 0.00 0.01 0.01 0.02 0.06 0.11 0.20 0.30 0.25 0.17 0.08 0.09 0.22 0.44 0.36 0.29 0.27 0.31 0.43 0.46 0.56 0.40 0.24 0.18 0.18 0.14 0.08 0.05 0.05 0.04 0.05 0.06 0.10 0.11 0.09 0.06 0.04 0.02 0.01 0.01 0.01
0.00 0.00 0.00 0.00 0.00 0.02 0.08 0.16 0.26 0.35 0.44 0.26 0.24 0.44 0.64 0.86 0.78 0.62 0.75 0.52 0.29 0.16 0.17 0.19 0.16 0.12 0.12 0.14 0.11 0.08 0.08 0.08 0.16 0.25 0.20 0.11 0.05 0.02 0.01 0.00 0.00 0.00 0.00
0.00 0.00 0.00 0.00 0.00 0.00 0.02 0.09 0.11 0.20 0.40 0.47 0.54 0.52 0.46 0.66 0.81 0.67 0.48 0.34 0.25 0.21 0.14 0.12 0.14 0.13 0.14 0.14 0.13 0.15 0.19 0.25 0.21 0.09 0.04 0.03 0.02 0.02 0.01 0.01 0.00 0.00 0.00
0.00 0.00 0.00 0.00 0.00 0.00 0.02 0.08 0.16 0.20 0.25 0.26 0.21 0.19 0.30 0.27 0.32 0.32 0.30 0.18 0.19 0.13 0.12 0.10 0.09 0.10 0.10 0.13 0.17 0.21 0.17 0.08 0.03 0.01 0.01 0.02 0.01 0.01 0.00 0.00 0.00 0.00 0.00
0.00 0.00 0.00 0.00 0.00 0.00 0.01 0.02 0.04 0.11 0.18 0.17 0.10 0.16 0.16 0.16 0.20 0.21 0.18 0.16 0.14 0.13 0.12 0.10 0.08 0.08 0.11 0.19 0.18 0.09 0.03 0.01 0.01 0.01 0.01 0.02 0.03 0.02 0.01 0.00 0.00 0.00 0.00
0.00 0.00 0.00 0.00 0.00 0.00 0.00 0.03 0.06 0.12 0.11 0.09 0.08 0.11 0.11 0.14 0.20 0.18 0.12 0.10 0.15 0.17 0.14 0.11 0.11 0.17 0.20 0.14 0.06 0.03 0.01 0.01 0.02 0.02 0.02 0.03 0.04 0.01 0.00 0.00 0.00 0.00 0.00
0.00 0.00 0.00 0.00 0.02 0.02 0.02 0.03 0.06 0.05 0.05 0.04 0.05 0.07 0.08 0.12 0.12 0.15 0.13 0.14 0.19 0.23 0.18 0.23 0.26 0.16 0.05 0.10 0.06 0.03 0.01 0.02 0.03 0.03 0.02 0.01 0.00 0.00 0.00 0.00 0.00 0.00 0.00
0.00 0.00 0.00 0.01 0.02 0.02 0.00 0.01 0.02 0.02 0.02 0.02 0.04 0.04 0.05 0.08 0.09 0.14 0.11 0.14 0.20 0.22 0.24 0.19 0.10 0.06 0.05 0.09 0.05 0.04 0.01 0.02 0.02 0.01 0.01 0.00 0.00 0.00 0.00 0.00 0.00 0.00 0.00
0.00 0.00 0.00 0.00 0.00 0.00 0.00 0.00 0.01 0.01 0.02 0.03 0.05 0.05 0.05 0.06 0.09 0.16 0.17 0.15 0.12 0.11 0.09 0.06 0.05 0.05 0.06 0.08 0.04 0.02 0.00 0.01 0.01 0.00 0.00 0.00 0.00 0.00 0.00 0.00 0.00 0.00 0.01
0.00 0.00 0.00 0.00 0.00 0.00 0.00 0.00 0.00 0.00 0.01 0.01 0.03 0.04 0.05 0.05 0.05 0.05 0.07 0.06 0.05 0.04 0.04 0.04 0.04 0.05 0.04 0.05 0.02 0.01 0.00 0.00 0.00 0.00 0.00 0.01 0.00 0.00 0.00 0.00 0.00 0.02 0.01
0.00 0.00 0.00 0.00 0.00 0.00 0.00 0.00 0.00 0.00 0.00 0.00 0.00 0.01 0.01 0.01 0.01 0.01 0.02 0.02 0.02 0.03 0.02 0.02 0.02 0.02 0.02 0.02 0.01 0.01 0.00 0.00 0.00 0.00 0.00 0.00 0.00 0.00 0.00 0.00 0.01 0.02 0.02
0.00 0.00 0.00 0.00 0.00 0.00 0.00 0.00 0.00 0.00 0.00 0.00 0.00 0.00 0.00 0.00 0.00 0.01 0.01 0.02 0.01 0.02 0.02 0.02 0.01 0.01 0.00 0.01 0.01 0.00 0.00 0.00 0.00 0.01 0.01 0.01 0.00 0.01 0.01 0.02 0.03 0.02 0.04
0.00 0.00 0.00 0.00 0.00 0.00 0.00 0.00 0.00 0.00 0.00 0.00 0.00 0.00 0.00 0.01 0.03 0.03 0.03 0.03 0.02 0.02 0.01 0.00 0.00 0.00 0.00 0.00 0.00 0.00 0.00 0.00 0.00 0.01 0.01 0.00 0.00 0.01 0.03 0.03 0.02 0.03 0.11
0.00 0.00 0.00 0.00 0.00 0.00 0.00 0.00 0.02 0.02 0.01 0.00 0.00 0.00 0.00 0.01 0.01 0.02 0.03 0.02 0.01 0.00 0.00 0.00 0.00 0.00 0.00 0.00 0.00 0.01 0.01 0.01 0.01 0.01 0.02 0.02 0.02 0.02 0.03 0.05 0.07 0.10 0.11
0.00 0.00 0.00 0.00 0.00 0.01 0.01 0.02 0.01 0.01 0.00 0.00 0.00 0.00 0.00 0.00 0.00 0.01 0.01 0.00 0.00 0.00 0.00 0.00 0.00 0.00 0.01 0.00 0.01 0.01 0.02 0.02 0.03 0.06 0.08 0.06 0.05 0.05 0.05 0.05 0.06 0.09 0.12
0.00 0.00 0.00 0.00 0.00 0.01 0.01 0.00 0.00 0.00 0.00 0.00 0.00 0.00 0.00 0.00 0.00 0.00 0.00 0.00 0.00 0.00 0.00 0.01 0.01 0.02 0.02 0.01 0.02 0.02 0.02 0.03 0.06 0.14 0.09 0.05 0.06 0.06 0.06 0.09 0.09 0.10 0.12

GFSMW_prec_precacc24_063.txt.gz
Total_Precipitation_Accumulation
0.00 0.00 0.00 0.00 0.01 0.02 0.03 0.07 0.14 0.25 0.26 0.18 0.07 0.06 0.05 0.01 0.02 0.05 0.06 0.06 0.07 0.07 0.05 0.10 0.11 0.20 0.12 0.06 0.03 0.03 0.01 0.00 0.00 0.00 0.00 0.00 0.00 0.00 0.00 0.00 0.00 0.00 0.00
0.00 0.00 0.00 0.00 0.00 0.00 0.00 0.00 0.01 0.09 0.20 0.18 0.05 0.01 0.02 0.01 0.01 0.03 0.04 0.04 0.10 0.09 0.07 0.09 0.07 0.09 0.11 0.04 0.02 0.02 0.02 0.01 0.00 0.00 0.00 0.00 0.00 0.00 0.00 0.00 0.00 0.00 0.00
0.00 0.00 0.00 0.00 0.00 0.00 0.00 0.00 0.00 0.01 0.04 0.06 0.06 0.03 0.00 0.02 0.02 0.05 0.08 0.05 0.06 0.08 0.11 0.10 0.09 0.10 0.15 0.06 0.03 0.02 0.03 0.03 0.01 0.01 0.01 0.01 0.00 0.00 0.00 0.00 0.00 0.00 0.00
0.00 0.00 0.00 0.00 0.00 0.00 0.00 0.00 0.00 0.00 0.00 0.01 0.04 0.02 0.01 0.02 0.02 0.03 0.04 0.02 0.04 0.07 0.15 0.19 0.18 0.14 0.20 0.13 0.07 0.05 0.05 0.05 0.03 0.03 0.01 0.01 0.01 0.01 0.02 0.01 0.00 0.00 0.00
0.00 0.00 0.00 0.00 0.00 0.00 0.00 0.00 0.00 0.00 0.00 0.00 0.04 0.07 0.06 0.01 0.04 0.02 0.06 0.04 0.11 0.15 0.19 0.23 0.28 0.25 0.19 0.22 0.18 0.13 0.10 0.08 0.08 0.07 0.05 0.03 0.04 0.06 0.06 0.05 0.02 0.01 0.01
0.00 0.00 0.00 0.00 0.00 0.00 0.00 0.00 0.00 0.00 0.00 0.03 0.05 0.09 0.20 0.10 0.10 0.13 0.22 0.23 0.29 0.29 0.34 0.31 0.26 0.27 0.25 0.24 0.25 0.27 0.31 0.28 0.29 0.28 0.26 0.20 0.16 0.11 0.08 0.05 0.04 0.06 0.04
0.00 0.00 0.00 0.00 0.00 0.00 0.00 0.00 0.00 0.00 0.00 0.08 0.07 0.05 0.17 0.29 0.34 0.33 0.39 0.53 0.72 0.71 0.31 0.21 0.18 0.18 0.21 0.22 0.16 0.15 0.15 0.18 0.21 0.24 0.23 0.19 0.15 0.08 0.06 0.06 0.05 0.04 0.03
0.00 0.00 0.00 0.00 0.00 0.00 0.00 0.00 0.00 0.00 0.03 0.04 0.09 0.11 0.15 0.24 0.33 0.30 0.38 0.57 0.39 0.28 0.17 0.11 0.09 0.09 0.13 0.15 0.12 0.08 0.07 0.08 0.11 0.14 0.16 0.14 0.11 0.08 0.05 0.03 0.02 0.01 0.00
0.00 0.01 0.00 0.00 0.01 0.00 0.00 0.00 0.00 0.00 0.02 0.05 0.22 0.16 0.09 0.03 0.11 0.17 0.18 0.18 0.18 0.20 0.18 0.15 0.10 0.08 0.09 0.10 0.10 0.07 0.09 0.09 0.09 0.11 0.10 0.06 0.05 0.05 0.02 0.01 0.01 0.01 0.01
0.00 0.00 0.00 0.01 0.01 0.01 0.03 0.02 0.02 0.02 0.05 0.12 0.15 0.08 0.10 0.11 0.02 0.07 0.13 0.24 0.32 0.27 0.36 0.25 0.17 0.13 0.10 0.11 0.11 0.08 0.07 0.07 0.06 0.07 0.09 0.08 0.06 0.04 0.03 0.02 0.01 0.01 0.02
0.00 0.00 0.00 0.01 0.01 0.02 0.06 0.11 0.19 0.30 0.24 0.14 0.04 0.05 0.16 0.37 0.28 0.17 0.20 0.27 0.42 0.46 0.56 0.40 0.24 0.19 0.20 0.17 0.13 0.12 0.14 0.13 0.13 0.12 0.15 0.15 0.11 0.07 0.04 0.02 0.01 0.01 0.01
0.00 0.00 0.00 0.00 0.00 0.02 0.08 0.16 0.26 0.34 0.42 0.23 0.19 0.39 0.58 0.78 0.69 0.55 0.71 0.51 0.29 0.16 0.17 0.19 0.16 0.13 0.18 0.22 0.19 0.14 0.12 0.15 0.24 0.33 0.29 0.18 0.08 0.03 0.01 0.00 0.00 0.00 0.00
0.00 0.00 0.00 0.00 0.00 0.00 0.02 0.07 0.09 0.15 0.36 0.42 0.49 0.47 0.41 0.61 0.75 0.63 0.47 0.34 0.25 0.21 0.14 0.12 0.15 0.13 0.15 0.17 0.18 0.19 0.26 0.36 0.36 0.24 0.16 0.08 0.04 0.02 0.02 0.01 0.01 0.00 0.00
0.00 0.00 0.00 0.00 0.00 0.00 0.00 0.03 0.12 0.15 0.19 0.21 0.18 0.16 0.27 0.24 0.30 0.31 0.30 0.18 0.20 0.13 0.12 0.10 0.10 0.10 0.10 0.11 0.17 0.28 0.25 0.12 0.07 0.05 0.04 0.03 0.03 0.02 0.02 0.01 0.01 0.01 0.00
0.00 0.00 0.00 0.00 0.00 0.00 0.00 0.01 0.03 0.09 0.16 0.16 0.10 0.16 0.16 0.16 0.20 0.21 0.18 0.17 0.16 0.16 0.16 0.13 0.10 0.10 0.09 0.15 0.16 0.10 0.05 0.03 0.03 0.02 0.02 0.02 0.07 0.07 0.03 0.01 0.01 0.00 0.00
0.00 0.00 0.00 0.00 0.00 0.00 0.00 0.02 0.06 0.12 0.11 0.09 0.08 0.11 0.11 0.14 0.20 0.18 0.12 0.11 0.17 0.21 0.20 0.17 0.21 0.21 0.17 0.17 0.12 0.08 0.04 0.04 0.04 0.03 0.02 0.04 0.08 0.02 0.04 0.03 0.02 0.01 0.00
0.00 0.00 0.00 0.00 0.02 0.02 0.02 0.03 0.06 0.05 0.05 0.04 0.05 0.07 0.08 0.12 0.12 0.15 0.13 0.15 0.22 0.28 0.23 0.21 0.19 0.16 0.10 0.14 0.12 0.08 0.03 0.04 0.04 0.03 0.02 0.02 0.03 0.06 0.02 0.03 0.02 0.00 0.00
0.00 0.00 0.00 0.01 0.02 0.02 0.00 0.01 0.02 0.02 0.02 0.02 0.04 0.04 0.05 0.08 0.09 0.14 0.10 0.12 0.16 0.16 0.14 0.16 0.15 0.12 0.11 0.16 0.09 0.07 0.02 0.03 0.04 0.03 0.03 0.03 0.03 0.03 0.02 0.00 0.00 0.01 0.00
0.00 0.00 0.00 0.00 0.00 0.00 0.00 0.00 0.01 0.01 0.02 0.03 0.05 0.05 0.05 0.06 0.08 0.13 0.12 0.11 0.11 0.12 0.12 0.10 0.10 0.09 0.09 0.14 0.08 0.04 0.01 0.04 0.04 0.04 0.04 0.04 0.02 0.02 0.03 0.01 0.00 0.00 0.01
0.00 0.00 0.00 0.00 0.00 0.00 0.00 0.00 0.00 0.00 0.01 0.01 0.03 0.04 0.05 0.05 0.04 0.05 0.07 0.06 0.07 0.07 0.05 0.07 0.07 0.10 0.07 0.13 0.06 0.03 0.01 0.03 0.03 0.04 0.03 0.05 0.01 0.02 0.01 0.00 0.00 0.02 0.01
0.00 0.00 0.00 0.00 0.00 0.00 0.00 0.00 0.00 0.00 0.00 0.00 0.00 0.01 0.01 0.02 0.02 0.01 0.02 0.03 0.03 0.04 0.03 0.04 0.04 0.05 0.06 0.08 0.08 0.06 0.04 0.04 0.04 0.03 0.01 0.01 0.03 0.01 0.00 0.00 0.01 0.02 0.02
0.00 0.00 0.00 0.00 0.00 0.00 0.00 0.00 0.00 0.00 0.00 0.00 0.00 0.02 0.02 0.03 0.04 0.04 0.02 0.02 0.02 0.02 0.04 0.04 0.04 0.04 0.06 0.10 0.09 0.07 0.05 0.03 0.01 0.01 0.01 0.01 0.02 0.00 0.00 0.01 0.01 0.01 0.03
0.00 0.00 0.00 0.00 0.00 0.00 0.00 0.00 0.00 0.00 0.00 0.01 0.03 0.03 0.03 0.04 0.04 0.03 0.05 0.04 0.04 0.04 0.05 0.04 0.05 0.05 0.05 0.05 0.06 0.03 0.01 0.00 0.00 0.01 0.01 0.00 0.00 0.01 0.01 0.01 0.00 0.01 0.07
0.00 0.00 0.00 0.00 0.00 0.00 0.00 0.00 0.02 0.03 0.04 0.05 0.04 0.04 0.02 0.02 0.02 0.03 0.04 0.05 0.05 0.07 0.08 0.08 0.06 0.04 0.02 0.01 0.01 0.01 0.01 0.01 0.00 0.01 0.02 0.02 0.02 0.02 0.02 0.03 0.03 0.04 0.07
0.00 0.00 0.00 0.00 0.01 0.01 0.01 0.02 0.03 0.04 0.03 0.01 0.01 0.00 0.00 0.00 0.00 0.01 0.02 0.02 0.03 0.04 0.03 0.04 0.04 0.04 0.01 0.00 0.01 0.01 0.02 0.03 0.03 0.03 0.03 0.03 0.04 0.04 0.04 0.04 0.03 0.04 0.05
0.01 0.00 0.00 0.00 0.00 0.01 0.01 0.01 0.01 0.01 0.01 0.01 0.00 0.00 0.00 0.00 0.00 0.00 0.01 0.02 0.01 0.02 0.02 0.04 0.05 0.07 0.07 0.08 0.09 0.08 0.05 0.02 0.01 0.02 0.04 0.04 0.05 0.06 0.06 0.09 0.08 0.06 0.06

GFSMW_prec_precacc24_069.txt.gz
Total_Precipitation_Accumulation
0.00 0.00 0.00 0.00 0.01 0.05 0.10 0.10 0.15 0.28 0.24 0.15 0.10 0.08 0.08 0.06 0.08 0.06 0.02 0.03 0.05 0.07 0.05 0.10 0.11 0.20 0.12 0.06 0.03 0.03 0.03 0.02 0.01 0.00 0.00 0.00 0.00 0.00 0.00 0.00 0.00 0.00 0.00
0.00 0.00 0.00 0.00 0.01 0.01 0.01 0.01 0.01 0.09 0.20 0.15 0.06 0.02 0.04 0.02 0.03 0.02 0.02 0.02 0.09 0.08 0.07 0.09 0.07 0.09 0.11 0.05 0.02 0.02 0.03 0.02 0.02 0.00 0.03 0.03 0.02 0.00 0.00 0.00 0.00 0.00 0.00
0.00 0.00 0.00 0.00 0.00 0.01 0.01 0.00 0.00 0.01 0.04 0.07 0.08 0.04 0.02 0.04 0.03 0.02 0.01 0.01 0.04 0.07 0.11 0.10 0.09 0.10 0.15 0.06 0.04 0.02 0.03 0.17 0.07 0.01 0.09 0.11 0.06 0.05 0.01 0.00 0.00 0.00 0.00
0.00 0.00 0.00 0.00 0.00 0.00 0.00 0.00 0.00 0.00 0.01 0.02 0.05 0.03 0.01 0.02 0.01 0.01 0.00 0.01 0.03 0.07 0.14 0.18 0.18 0.15 0.21 0.13 0.07 0.06 0.05 0.35 0.23 0.08 0.02 0.01 0.03 0.05 0.03 0.01 0.00 0.00 0.00
0.00 0.00 0.00 0.00 0.00 0.00 0.00 0.01 0.00 0.00 0.00 0.01 0.03 0.06 0.04 0.00 0.01 0.01 0.04 0.03 0.09 0.12 0.16 0.22 0.29 0.25 0.24 0.28 0.35 0.26 0.19 0.24 0.25 0.10 0.10 0.04 0.04 0.06 0.06 0.06 0.06 0.02 0.03
0.00 0.00 0.00 0.00 0.00 0.00 0.00 0.00 0.01 0.00 0.00 0.00 0.02 0.04 0.16 0.06 0.01 0.05 0.19 0.22 0.27 0.26 0.31 0.29 0.26 0.30 0.31 0.32 0.35 0.36 0.45 0.43 0.42 0.36 0.32 0.25 0.20 0.14 0.10 0.08 0.11 0.16 0.13
0.00 0.00 0.00 0.00 0.00 0.00 0.00 0.00 0.00 0.00 0.00 0.00 0.01 0.01 0.08 0.12 0.08 0.10 0.29 0.47 0.64 0.63 0.25 0.18 0.17 0.18 0.23 0.24 0.20 0.21 0.20 0.24 0.28 0.31 0.29 0.25 0.20 0.20 0.25 0.23 0.17 0.13 0.07
0.00 0.00 0.00 0.00 0.00 0.00 0.00 0.00 0.00 0.00 0.00 0.00 0.03 0.05 0.03 0.06 0.12 0.06 0.15 0.42 0.27 0.18 0.12 0.09 0.08 0.09 0.13 0.16 0.14 0.13 0.10 0.12 0.16 0.18 0.20 0.20 0.16 0.16 0.16 0.14 0.13 0.08 0.04
0.00 0.01 0.00 0.00 0.01 0.00 0.00 0.00 0.00 0.00 0.00 0.00 0.05 0.06 0.06 0.01 0.05 0.09 0.09 0.09 0.11 0.16 0.16 0.14 0.10 0.07 0.09 0.10 0.10 0.09 0.12 0.12 0.13 0.15 0.14 0.11 0.09 0.08 0.06 0.04 0.03 0.03 0.02
0.00 0.00 0.00 0.01 0.01 0.01 0.03 0.02 0.02 0.02 0.02 0.01 0.01 0.01 0.09 0.11 0.01 0.04 0.08 0.19 0.30 0.27 0.35 0.25 0.17 0.13 0.10 0.11 0.11 0.08 0.08 0.09 0.08 0.10 0.12 0.12 0.10 0.08 0.05 0.04 0.04 0.04 0.06
0.00 0.00 0.00 0.01 0.01 0.02 0.06 0.11 0.19 0.30 0.24 0.14 0.04 0.05 0.15 0.35 0.24 0.09 0.13 0.24 0.39 0.45 0.55 0.40 0.24 0.18 0.19 0.17 0.13 0.12 0.14 0.14 0.15 0.16 0.18 0.19 0.17 0.18 0.19 0.25 0.33 0.39 0.39
0.00 0.00 0.00 0.00 0.00 0.02 0.08 0.16 0.26 0.34 0.42 0.23 0.17 0.36 0.55 0.75 0.66 0.50 0.66 0.47 0.27 0.15 0.16 0.19 0.16 0.13 0.18 0.22 0.19 0.15 0.13 0.15 0.23 0.35 0.38 0.31 0.28 0.31 0.33 0.33 0.30 0.24 0.20
0.00 0.00 0.00 0.00 0.00 0.00 0.02 0.07 0.09 0.14 0.35 0.42 0.48 0.46 0.38 0.58 0.70 0.57 0.41 0.31 0.23 0.19 0.14 0.12 0.14 0.13 0.15 0.17 0.18 0.18 0.20 0.26 0.35 0.31 0.27 0.25 0.26 0.26 0.22 0.20 0.17 0.14 0.12
0.00 0.00 0.00 0.00 0.00 0.00 0.00 0.03 0.12 0.14 0.19 0.21 0.17 0.15 0.26 0.23 0.29 0.29 0.28 0.17 0.19 0.13 0.11 0.09 0.08 0.09 0.09 0.10 0.13 0.15 0.15 0.12 0.12 0.12 0.12 0.12 0.13 0.13 0.13 0.13 0.12 0.10 0.09
0.00 0.00 0.00 0.00 0.00 0.00 0.00 0.01 0.02 0.07 0.13 0.12 0.06 0.12 0.14 0.14 0.18 0.20 0.18 0.17 0.16 0.16 0.16 0.12 0.09 0.06 0.05 0.08 0.06 0.05 0.05 0.04 0.04 0.03 0.04 0.05 0.11 0.12 0.09 0.08 0.10 0.11 0.14
0.00 0.00 0.00 0.00 0.00 0.00 0.00 0.00 0.04 0.08 0.07 0.08 0.06 0.10 0.10 0.14 0.19 0.18 0.12 0.11 0.17 0.21 0.18 0.15 0.19 0.19 0.13 0.17 0.14 0.11 0.06 0.06 0.06 0.06 0.05 0.07 0.15 0.10 0.13 0.13 0.14 0.14 0.13
0.00 0.00 0.00 0.00 0.02 0.02 0.02 0.02 0.05 0.03 0.04 0.04 0.05 0.07 0.08 0.12 0.12 0.15 0.13 0.15 0.21 0.26 0.21 0.20 0.17 0.15 0.11 0.16 0.14 0.14 0.08 0.08 0.07 0.08 0.08 0.08 0.10 0.16 0.09 0.15 0.15 0.10 0.09
0.00 0.00 0.00 0.01 0.02 0.02 0.00 0.01 0.02 0.02 0.02 0.02 0.04 0.04 0.05 0.08 0.09 0.14 0.10 0.11 0.15 0.15 0.15 0.16 0.16 0.13 0.13 0.20 0.18 0.19 0.07 0.06 0.07 0.07 0.07 0.06 0.07 0.11 0.10 0.06 0.07 0.05 0.07
0.00 0.00 0.00 0.00 0.00 0.00 0.00 0.00 0.01 0.01 0.02 0.03 0.05 0.05 0.05 0.06 0.08 0.13 0.12 0.10 0.10 0.12 0.12 0.10 0.11 0.10 0.12 0.21 0.16 0.14 0.04 0.09 0.11 0.11 0.13 0.15 0.12 0.32 0.27 0.17 0.25 0.31 0.34
0.00 0.00 0.00 0.00 0.00 0.00 0.00 0.00 0.00 0.00 0.01 0.01 0.03 0.04 0.05 0.05 0.04 0.05 0.07 0.07 0.07 0.08 0.06 0.08 0.08 0.15 0.09 0.21 0.13 0.09 0.03 0.06 0.08 0.11 0.19 0.35 0.25 0.38 0.28 0.22 0.21 0.24 0.23
0.00 0.00 0.00 0.00 0.00 0.00 0.00 0.00 0.00 0.00 0.00 0.00 0.00 0.01 0.01 0.02 0.01 0.02 0.03 0.04 0.05 0.06 0.06 0.07 0.06 0.06 0.09 0.14 0.15 0.12 0.06 0.07 0.14 0.17 0.20 0.23 0.27 0.18 0.17 0.15 0.14 0.17 0.17
0.00 0.00 0.00 0.00 0.00 0.00 0.00 0.00 0.00 0.00 0.00 0.00 0.00 0.02 0.02 0.03 0.06 0.07 0.07 0.06 0.05 0.05 0.07 0.06 0.06 0.05 0.08 0.18 0.16 0.13 0.12 0.17 0.13 0.18 0.20 0.26 0.30 0.21 0.20 0.18 0.14 0.11 0.08
0.00 0.00 0.00 0.00 0.00 0.00 0.00 0.00 0.00 0.00 0.00 0.01 0.03 0.04 0.05 0.07 0.08 0.08 0.09 0.08 0.07 0.08 0.08 0.07 0.08 0.07 0.07 0.11 0.16 0.11 0.11 0.12 0.09 0.13 0.21 0.27 0.26 0.21 0.16 0.13 0.10 0.07 0.04
0.00 0.00 0.00 0.00 0.00 0.00 0.00 0.00 0.02 0.04 0.06 0.07 0.07 0.06 0.07 0.11 0.07 0.07 0.08 0.08 0.08 0.10 0.10 0.10 0.10 0.10 0.10 0.11 0.12 0.15 0.16 0.19 0.20 0.25 0.28 0.27 0.23 0.19 0.16 0.11 0.06 0.03 0.02
0.00 0.00 0.00 0.00 0.02 0.02 0.01 0.03 0.04 0.06 0.06 0.06 0.06 0.05 0.05 0.05 0.05 0.04 0.07 0.05 0.06 0.10 0.07 0.08 0.11 0.14 0.19 0.24 0.25 0.24 0.24 0.23 0.23 0.22 0.18 0.15 0.10 0.06 0.04 0.02 0.01 0.01 0.01
0.01 0.01 0.00 0.00 0.00 0.01 0.01 0.02 0.04 0.05 0.07 0.09 0.08 0.08 0.05 0.03 0.03 0.02 0.04 0.08 0.08 0.09 0.10 0.12 0.13 0.20 0.21 0.25 0.25 0.24 0.19 0.14 0.11 0.08 0.06 0.05 0.04 0.03 0.02 0.01 0.00 0.01 0.02

GFSMW_prec_precacc24_072.txt.gz
Total_Precipitation_Accumulation
0.00 0.00 0.00 0.00 0.02 0.06 0.11 0.10 0.15 0.28 0.22 0.12 0.09 0.08 0.10 0.11 0.14 0.09 0.04 0.05 0.08 0.07 0.05 0.08 0.10 0.19 0.12 0.06 0.03 0.03 0.03 0.02 0.01 0.00 0.00 0.00 0.00 0.00 0.00 0.00 0.00 0.00 0.00
0.00 0.00 0.00 0.00 0.01 0.02 0.02 0.01 0.01 0.09 0.19 0.11 0.05 0.02 0.04 0.03 0.04 0.03 0.03 0.03 0.06 0.07 0.07 0.07 0.06 0.08 0.11 0.05 0.02 0.03 0.04 0.02 0.02 0.00 0.04 0.04 0.02 0.00 0.00 0.00 0.00 0.00 0.00
0.00 0.00 0.00 0.00 0.00 0.01 0.01 0.01 0.00 0.01 0.04 0.06 0.08 0.03 0.02 0.06 0.04 0.02 0.01 0.02 0.02 0.05 0.10 0.10 0.07 0.09 0.15 0.07 0.06 0.03 0.04 0.20 0.08 0.02 0.11 0.16 0.09 0.11 0.02 0.00 0.00 0.00 0.00
0.00 0.00 0.00 0.00 0.00 0.00 0.00 0.01 0.00 0.00 0.01 0.02 0.04 0.03 0.01 0.03 0.01 0.01 0.00 0.01 0.03 0.06 0.11 0.17 0.17 0.14 0.19 0.15 0.12 0.09 0.08 0.49 0.32 0.19 0.08 0.06 0.08 0.26 0.19 0.04 0.00 0.00 0.00
0.00 0.00 0.00 0.00 0.00 0.00 0.00 0.01 0.01 0.00 0.00 0.01 0.03 0.05 0.04 0.01 0.01 0.01 0.01 0.01 0.07 0.11 0.13 0.21 0.27 0.22 0.21 0.29 0.39 0.32 0.28 0.43 0.30 0.11 0.14 0.08 0.07 0.14 0.12 0.09 0.08 0.03 0.03
0.00 0.00 0.00 0.00 0.00 0.00 0.00 0.01 0.01 0.00 0.00 0.00 0.02 0.02 0.10 0.05 0.01 0.03 0.08 0.13 0.24 0.25 0.26 0.27 0.24 0.29 0.30 0.32 0.38 0.41 0.52 0.52 0.49 0.38 0.36 0.31 0.26 0.17 0.15 0.11 0.15 0.21 0.15
0.00 0.00 0.00 0.00 0.00 0.00 0.00 0.00 0.00 0.00 0.00 0.01 0.01 0.00 0.03 0.09 0.06 0.01 0.05 0.14 0.12 0.26 0.18 0.16 0.16 0.17 0.22 0.24 0.22 0.26 0.21 0.25 0.31 0.34 0.32 0.28 0.24 0.25 0.31 0.26 0.18 0.15 0.08
0.00 0.00 0.00 0.00 0.00 0.00 0.00 0.00 0.00 0.00 0.00 0.00 0.01 0.02 0.01 0.01 0.01 0.02 0.01 0.05 0.04 0.07 0.08 0.04 0.04 0.06 0.11 0.15 0.15 0.13 0.10 0.12 0.16 0.21 0.23 0.23 0.18 0.17 0.18 0.17 0.15 0.09 0.04
0.00 0.01 0.00 0.00 0.01 0.00 0.00 0.00 0.00 0.00 0.00 0.00 0.01 0.01 0.02 0.00 0.02 0.07 0.09 0.07 0.05 0.09 0.11 0.10 0.08 0.07 0.09 0.09 0.10 0.09 0.11 0.11 0.13 0.16 0.16 0.14 0.11 0.11 0.09 0.07 0.06 0.04 0.02
0.00 0.00 0.00 0.01 0.01 0.01 0.03 0.02 0.02 0.01 0.02 0.01 0.02 0.01 0.06 0.09 0.01 0.03 0.08 0.16 0.24 0.23 0.34 0.24 0.17 0.13 0.10 0.10 0.10 0.07 0.07 0.10 0.08 0.10 0.13 0.14 0.12 0.13 0.10 0.08 0.07 0.05 0.06
0.00 0.00 0.00 0.01 0.01 0.02 0.06 0.11 0.19 0.29 0.20 0.14 0.04 0.04 0.12 0.33 0.23 0.08 0.11 0.19 0.36 0.44 0.55 0.40 0.24 0.18 0.19 0.16 0.12 0.12 0.14 0.14 0.15 0.16 0.16 0.17 0.18 0.19 0.22 0.28 0.35 0.40 0.40
0.00 0.00 0.00 0.00 0.00 0.02 0.08 0.16 0.26 0.34 0.25 0.19 0.13 0.32 0.50 0.74 0.60 0.46 0.60 0.42 0.26 0.15 0.16 0.19 0.16 0.13 0.18 0.22 0.18 0.15 0.13 0.15 0.18 0.23 0.30 0.30 0.28 0.33 0.34 0.35 0.31 0.27 0.24
0.00 0.00 0.00 0.00 0.00 0.00 0.02 0.07 0.09 0.14 0.25 0.33 0.35 0.42 0.31 0.51 0.67 0.49 0.37 0.28 0.22 0.19 0.14 0.12 0.14 0.13 0.15 0.16 0.17 0.17 0.19 0.22 0.28 0.28 0.27 0.25 0.26 0.26 0.22 0.21 0.19 0.16 0.18
0.00 0.00 0.00 0.00 0.00 0.00 0.00 0.03 0.12 0.14 0.18 0.15 0.11 0.13 0.17 0.15 0.26 0.28 0.26 0.16 0.18 0.12 0.10 0.09 0.08 0.08 0.07 0.07 0.10 0.14 0.13 0.11 0.12 0.12 0.12 0.12 0.13 0.13 0.13 0.13 0.11 0.10 0.11
0.00 0.00 0.00 0.00 0.00 0.00 0.00 0.01 0.01 0.04 0.08 0.05 0.04 0.09 0.09 0.13 0.16 0.18 0.16 0.16 0.16 0.16 0.16 0.12 0.09 0.06 0.04 0.07 0.05 0.05 0.04 0.04 0.04 0.03 0.04 0.05 0.11 0.12 0.09 0.08 0.10 0.12 0.16
0.00 0.00 0.00 0.00 0.00 0.00 0.00 0.00 0.03 0.07 0.06 0.07 0.06 0.10 0.10 0.13 0.19 0.17 0.12 0.11 0.17 0.21 0.18 0.15 0.19 0.19 0.13 0.17 0.14 0.11 0.06 0.06 0.06 0.06 0.05 0.07 0.15 0.10 0.15 0.16 0.20 0.23 0.25
0.00 0.00 0.00 0.00 0.01 0.01 0.02 0.02 0.04 0.02 0.02 0.03 0.04 0.06 0.07 0.12 0.12 0.15 0.13 0.15 0.21 0.26 0.21 0.20 0.17 0.15 0.11 0.16 0.14 0.14 0.08 0.08 0.07 0.08 0.08 0.09 0.11 0.17 0.12 0.22 0.31 0.30 0.33
0.00 0.00 0.00 0.01 0.01 0.01 0.00 0.00 0.02 0.01 0.01 0.02 0.04 0.04 0.05 0.08 0.09 0.14 0.10 0.11 0.15 0.15 0.15 0.16 0.16 0.13 0.13 0.20 0.18 0.19 0.07 0.06 0.07 0.07 0.07 0.07 0.07 0.12 0.12 0.07 0.11 0.14 0.19
0.00 0.00 0.00 0.00 0.00 0.00 0.00 0.00 0.01 0.02 0.03 0.03 0.06 0.05 0.05 0.06 0.08 0.13 0.12 0.10 0.10 0.12 0.12 0.10 0.11 0.10 0.12 0.21 0.16 0.14 0.04 0.09 0.12 0.12 0.14 0.18 0.17 0.44 0.38 0.24 0.32 0.43 0.51
0.00 0.00 0.00 0.00 0.00 0.00 0.00 0.00 0.00 0.00 0.01 0.01 0.03 0.04 0.05 0.05 0.04 0.05 0.07 0.07 0.07 0.08 0.06 0.08 0.08 0.15 0.09 0.21 0.14 0.11 0.04 0.08 0.10 0.14 0.24 0.47 0.32 0.49 0.37 0.28 0.24 0.32 0.34
0.00 0.00 0.00 0.00 0.00 0.00 0.00 0.00 0.00 0.00 0.00 0.00 0.00 0.01 0.03 0.03 0.02 0.03 0.03 0.04 0.05 0.06 0.06 0.07 0.06 0.06 0.10 0.16 0.19 0.16 0.09 0.10 0.18 0.22 0.25 0.31 0.38 0.24 0.23 0.20 0.16 0.23 0.28
0.00 0.00 0.00 0.00 0.00 0.00 0.00 0.00 0.00 0.00 0.00 0.00 0.00 0.02 0.02 0.04 0.09 0.11 0.09 0.07 0.05 0.05 0.07 0.07 0.08 0.08 0.10 0.22 0.21 0.18 0.18 0.25 0.18 0.23 0.24 0.35 0.40 0.28 0.27 0.25 0.25 0.26 0.24
0.00 0.00 0.00 0.00 0.00 0.00 0.00 0.00 0.00 0.00 0.00 0.01 0.03 0.04 0.05 0.07 0.09 0.10 0.12 0.08 0.08 0.09 0.11 0.11 0.13 0.14 0.15 0.19 0.24 0.20 0.22 0.25 0.21 0.21 0.30 0.38 0.34 0.28 0.24 0.22 0.22 0.20 0.16
0.00 0.00 0.00 0.00 0.00 0.00 0.00 0.00 0.02 0.04 0.06 0.08 0.08 0.08 0.09 0.13 0.08 0.07 0.09 0.10 0.11 0.15 0.19 0.21 0.22 0.23 0.24 0.24 0.22 0.22 0.23 0.24 0.24 0.30 0.34 0.34 0.31 0.30 0.28 0.25 0.19 0.14 0.11
0.00 0.00 0.00 0.00 0.02 0.02 0.01 0.03 0.04 0.06 0.07 0.07 0.07 0.08 0.08 0.09 0.09 0.10 0.14 0.12 0.14 0.20 0.19 0.25 0.31 0.39 0.47 0.57 0.53 0.40 0.35 0.32 0.32 0.30 0.28 0.25 0.20 0.17 0.14 0.11 0.07 0.05 0.03
0.01 0.01 0.00 0.00 0.00 0.01 0.01 0.02 0.04 0.05 0.07 0.09 0.10 0.12 0.10 0.11 0.12 0.14 0.19 0.26 0.24 0.24 0.27 0.31 0.30 0.38 0.36 0.39 0.38 0.37 0.33 0.29 0.26 0.22 0.22 0.22 0.19 0.16 0.13 0.10 0.06 0.03 0.02

GFSMW_prec_precacc24_075.txt.gz
Total_Precipitation_Accumulation
0.00 0.00 0.00 0.00 0.02 0.06 0.11 0.10 0.15 0.28 0.22 0.12 0.10 0.10 0.13 0.17 0.20 0.13 0.06 0.04 0.07 0.07 0.06 0.07 0.12 0.19 0.24 0.12 0.04 0.03 0.03 0.02 0.01 0.00 0.00 0.00 0.00 0.00 0.00 0.00 0.00 0.00 0.00
0.00 0.00 0.00 0.00 0.01 0.02 0.02 0.01 0.01 0.09 0.19 0.11 0.05 0.02 0.04 0.04 0.04 0.04 0.03 0.02 0.02 0.04 0.04 0.05 0.05 0.04 0.12 0.09 0.03 0.03 0.04 0.02 0.02 0.00 0.04 0.04 0.02 0.00 0.00 0.00 0.00 0.00 0.00
0.00 0.00 0.00 0.00 0.00 0.01 0.01 0.01 0.00 0.01 0.04 0.06 0.07 0.02 0.02 0.06 0.05 0.02 0.01 0.01 0.01 0.02 0.04 0.06 0.06 0.04 0.05 0.08 0.06 0.03 0.04 0.20 0.08 0.02 0.11 0.16 0.09 0.11 0.02 0.00 0.00 0.00 0.00
0.00 0.00 0.00 0.00 0.00 0.00 0.00 0.01 0.00 0.00 0.01 0.02 0.03 0.02 0.01 0.04 0.02 0.01 0.00 0.01 0.02 0.03 0.03 0.07 0.12 0.13 0.08 0.11 0.10 0.08 0.07 0.49 0.33 0.20 0.09 0.08 0.14 0.28 0.21 0.06 0.00 0.00 0.00
0.00 0.00 0.00 0.00 0.00 0.00 0.00 0.01 0.01 0.00 0.00 0.02 0.02 0.01 0.01 0.00 0.01 0.01 0.00 0.01 0.01 0.02 0.05 0.09 0.11 0.14 0.15 0.21 0.35 0.32 0.28 0.47 0.32 0.12 0.15 0.09 0.10 0.17 0.14 0.10 0.09 0.03 0.03
0.00 0.00 0.00 0.00 0.00 0.00 0.00 0.01 0.01 0.00 0.00 0.00 0.02 0.01 0.00 0.00 0.00 0.01 0.00 0.00 0.01 0.04 0.03 0.06 0.09 0.15 0.18 0.26 0.38 0.42 0.54 0.60 0.52 0.38 0.36 0.30 0.25 0.17 0.17 0.13 0.16 0.21 0.15
0.00 0.00 0.00 0.00 0.00 0.00 0.00 0.00 0.00 0.00 0.00 0.00 0.00 0.00 0.00 0.00 0.00 0.00 0.00 0.00 0.00 0.01 0.02 0.03 0.08 0.10 0.18 0.23 0.22 0.27 0.25 0.32 0.34 0.32 0.26 0.25 0.24 0.26 0.33 0.30 0.20 0.16 0.08
0.00 0.00 0.00 0.00 0.00 0.00 0.00 0.00 0.00 0.00 0.00 0.00 0.01 0.00 0.00 0.00 0.00 0.00 0.00 0.00 0.01 0.02 0.05 0.02 0.02 0.04 0.09 0.15 0.15 0.14 0.09 0.13 0.18 0.19 0.18 0.20 0.17 0.17 0.19 0.17 0.16 0.09 0.04
0.00 0.00 0.00 0.00 0.01 0.00 0.00 0.00 0.00 0.00 0.00 0.00 0.01 0.01 0.01 0.00 0.00 0.03 0.03 0.03 0.04 0.07 0.05 0.05 0.05 0.05 0.09 0.09 0.10 0.08 0.10 0.10 0.10 0.12 0.14 0.13 0.11 0.12 0.10 0.08 0.09 0.06 0.02
0.00 0.00 0.00 0.01 0.01 0.01 0.03 0.02 0.01 0.00 0.01 0.01 0.02 0.01 0.04 0.05 0.01 0.03 0.07 0.15 0.23 0.21 0.28 0.19 0.16 0.12 0.09 0.10 0.10 0.06 0.07 0.09 0.07 0.10 0.12 0.13 0.11 0.12 0.10 0.09 0.09 0.08 0.08
0.00 0.00 0.00 0.00 0.00 0.01 0.03 0.07 0.12 0.15 0.14 0.08 0.03 0.03 0.09 0.15 0.17 0.08 0.11 0.19 0.34 0.42 0.54 0.38 0.23 0.17 0.18 0.16 0.12 0.12 0.14 0.13 0.14 0.15 0.15 0.16 0.16 0.18 0.22 0.29 0.36 0.41 0.41
0.00 0.00 0.00 0.00 0.00 0.00 0.01 0.02 0.07 0.09 0.17 0.11 0.06 0.07 0.23 0.37 0.39 0.38 0.59 0.37 0.20 0.13 0.16 0.18 0.16 0.13 0.18 0.21 0.18 0.14 0.13 0.13 0.15 0.19 0.29 0.29 0.28 0.33 0.34 0.35 0.31 0.27 0.24
0.00 0.00 0.00 0.00 0.00 0.00 0.00 0.00 0.01 0.02 0.05 0.11 0.11 0.10 0.16 0.43 0.58 0.34 0.27 0.23 0.18 0.17 0.13 0.12 0.14 0.13 0.15 0.16 0.16 0.15 0.16 0.18 0.24 0.27 0.27 0.25 0.26 0.26 0.22 0.21 0.19 0.16 0.18
0.00 0.00 0.01 0.00 0.00 0.00 0.00 0.00 0.00 0.01 0.01 0.03 0.05 0.07 0.09 0.13 0.25 0.23 0.20 0.14 0.16 0.11 0.10 0.08 0.07 0.08 0.07 0.06 0.10 0.12 0.12 0.10 0.11 0.12 0.11 0.12 0.13 0.13 0.13 0.13 0.12 0.11 0.13
0.00 0.00 0.01 0.02 0.01 0.01 0.01 0.01 0.01 0.02 0.03 0.04 0.04 0.08 0.07 0.11 0.12 0.16 0.13 0.14 0.14 0.15 0.15 0.11 0.09 0.06 0.04 0.07 0.05 0.04 0.04 0.04 0.04 0.03 0.04 0.05 0.11 0.12 0.09 0.09 0.10 0.12 0.17
0.00 0.00 0.00 0.00 0.00 0.02 0.06 0.05 0.02 0.03 0.04 0.06 0.05 0.08 0.09 0.12 0.16 0.14 0.09 0.09 0.16 0.21 0.18 0.15 0.19 0.18 0.13 0.17 0.14 0.11 0.06 0.06 0.06 0.06 0.05 0.07 0.15 0.10 0.15 0.16 0.20 0.24 0.28
0.00 0.00 0.00 0.00 0.00 0.00 0.00 0.01 0.06 0.09 0.07 0.05 0.04 0.06 0.07 0.09 0.11 0.14 0.13 0.15 0.21 0.26 0.21 0.20 0.17 0.15 0.11 0.16 0.14 0.14 0.08 0.08 0.07 0.08 0.08 0.09 0.11 0.17 0.12 0.22 0.31 0.31 0.35
0.00 0.00 0.00 0.00 0.00 0.00 0.00 0.00 0.01 0.04 0.05 0.06 0.07 0.07 0.07 0.09 0.10 0.14 0.10 0.11 0.15 0.15 0.15 0.16 0.16 0.13 0.13 0.20 0.18 0.19 0.07 0.06 0.07 0.07 0.07 0.07 0.07 0.12 0.12 0.07 0.11 0.15 0.21
0.00 0.00 0.00 0.00 0.00 0.00 0.00 0.00 0.00 0.01 0.01 0.02 0.07 0.12 0.12 0.11 0.14 0.16 0.13 0.11 0.11 0.12 0.12 0.10 0.11 0.10 0.12 0.21 0.16 0.14 0.04 0.09 0.12 0.12 0.14 0.18 0.17 0.45 0.40 0.25 0.34 0.49 0.58
0.00 0.00 0.00 0.00 0.00 0.00 0.00 0.00 0.00 0.00 0.00 0.01 0.05 0.08 0.09 0.09 0.13 0.12 0.12 0.11 0.11 0.10 0.08 0.09 0.08 0.15 0.10 0.22 0.14 0.11 0.05 0.09 0.11 0.15 0.25 0.49 0.33 0.53 0.42 0.33 0.26 0.37 0.44
0.00 0.00 0.00 0.00 0.00 0.00 0.00 0.00 0.00 0.00 0.00 0.00 0.00 0.01 0.03 0.07 0.05 0.10 0.07 0.09 0.16 0.14 0.11 0.11 0.08 0.07 0.12 0.18 0.22 0.17 0.09 0.10 0.19 0.24 0.28 0.36 0.48 0.30 0.31 0.29 0.20 0.34 0.40
0.00 0.00 0.00 0.00 0.00 0.00 0.00 0.00 0.00 0.00 0.00 0.00 0.00 0.02 0.02 0.04 0.10 0.13 0.14 0.12 0.11 0.11 0.11 0.09 0.09 0.09 0.12 0.26 0.24 0.21 0.22 0.30 0.21 0.29 0.33 0.47 0.54 0.40 0.43 0.44 0.44 0.43 0.38
0.00 0.00 0.00 0.00 0.00 0.00 0.00 0.00 0.00 0.00 0.00 0.01 0.03 0.04 0.05 0.07 0.09 0.11 0.14 0.12 0.11 0.13 0.15 0.16 0.19 0.20 0.20 0.24 0.33 0.28 0.31 0.36 0.34 0.48 0.66 0.75 0.66 0.56 0.53 0.49 0.44 0.33 0.26
0.00 0.00 0.00 0.00 0.00 0.00 0.00 0.00 0.02 0.04 0.06 0.08 0.08 0.08 0.09 0.13 0.08 0.07 0.09 0.11 0.13 0.17 0.24 0.27 0.30 0.32 0.34 0.35 0.39 0.41 0.46 0.53 0.60 0.76 0.85 0.85 0.77 0.62 0.51 0.43 0.32 0.24 0.20
0.00 0.00 0.00 0.00 0.02 0.02 0.01 0.03 0.04 0.06 0.07 0.07 0.07 0.08 0.08 0.09 0.09 0.10 0.15 0.14 0.19 0.26 0.27 0.34 0.45 0.54 0.65 0.80 0.83 0.81 0.82 0.77 0.76 0.68 0.63 0.56 0.45 0.34 0.30 0.27 0.24 0.21 0.18
0.01 0.01 0.00 0.00 0.00 0.01 0.01 0.02 0.04 0.05 0.07 0.09 0.10 0.12 0.10 0.11 0.12 0.14 0.20 0.30 0.33 0.36 0.39 0.45 0.46 0.63 0.71 0.77 0.72 0.66 0.61 0.55 0.50 0.41 0.39 0.38 0.35 0.33 0.30 0.26 0.22 0.17 0.13